Regional Weather Roundup
Issued by NWS

Home | Current Version | Previous Version | Text Only | Print | Product List | Glossary On
Versions: 1 2 3 4 5 6 7 8 9 10 11 12 13 14 15 16 17 18 19 20 21 22 23 24 25 26 27 28 29 30 31 32 33 34 35 36 37 38 39 40 41 42 43 44 45 46 47 48 49 50
000
ASUS44 KFWD 251203
RWRTX
NORTH TEXAS HOURLY WEATHER ROUNDUP
NATIONAL WEATHER SERVICE FORT WORTH TX
700 AM CDT MON SEP 25 2017

NOTE: "FAIR" INDICATES FEW OR NO CLOUDS BELOW 12,000 FEET WITH NO
SIGNIFICANT WEATHER AND/OR OBSTRUCTIONS TO VISIBILITY.

TXZ118-119-251300-
DALLAS/FORT WORTH METROPLEX

CITY           SKY/WX    TMP DP  RH WIND       PRES   REMARKS
DFW AIRPORT    PTCLDY    72  68  87 SE3       29.89R
6HR MIN TEMP:  72; 6HR MAX TEMP:  79;

DALLAS LOVE    PTCLDY    74  67  78 E7        29.90R
6HR MIN TEMP:  74; 6HR MAX TEMP:  81;

FTW MEACHAM    PTCLDY    73  70  90 S6        29.90R
6HR MIN TEMP:  73; 6HR MAX TEMP:  80;

DAL-EXECUTIVE  CLEAR     69  66  90 SE3       29.90R
6HR MIN TEMP:  69; 6HR MAX TEMP:  76;

FTW-ALLIANCE   PTCLDY    72  68  87 SE3       29.90R
6HR MIN TEMP:  72; 6HR MAX TEMP:  79;

FTW-NAS-JRB    PTCLDY    74  68  81 SE5       29.90R
6HR MIN TEMP:  74; 6HR MAX TEMP:  80;

FTW-SPINKS     CLEAR     70  66  88 CALM      29.92R
ARLINGTON      CLEAR     70  68  93 CALM      29.90R
6HR MIN TEMP:  69; 6HR MAX TEMP:  77;

GRAND PRAIRIE  CLEAR     72  66  83 CALM      29.92R
ADDISON        CLEAR     73  66  78 SE6       29.91R
MESQUITE       CLEAR     66  64  94 E5        29.91S
LANCASTER      CLEAR     68  63  86 CALM      29.92R
6HR MIN TEMP:  67; 6HR MAX TEMP:  75;

$$

TXZ091>094-102>105-117-120-121-131>134-251300-
NORTH CENTRAL TEXAS

CITY           SKY/WX    TMP DP  RH WIND       PRES   REMARKS
SHRMAN/DENISON PTCLDY    71  65  82 SE8       29.93S
6HR MIN TEMP:  71; 6HR MAX TEMP:  75;

GAINESVILLE    CLOUDY    70  65  86 SE6       29.93R
6HR MIN TEMP:  69; 6HR MAX TEMP:  74;

BOWIE          PTCLDY    70  67  90 SE3       29.91R
6HR MIN TEMP:  70; 6HR MAX TEMP:  74;

BRIDGEPORT     MOCLDY    71  67  87 SE3       29.92R
6HR MIN TEMP:  71; 6HR MAX TEMP:  77;

DECATUR        MOCLDY    73  68  85 SE6       29.91R
6HR MIN TEMP:  73; 6HR MAX TEMP:  78;

DENTON         CLEAR     72  68  87 SE5       29.91R
6HR MIN TEMP:  72; 6HR MAX TEMP:  78;

MCKINNEY       CLEAR     68  67  96 CALM      29.92R
6HR MIN TEMP:  67; 6HR MAX TEMP:  74;

BONHAM         CLEAR     66  64  93 E3        29.94R
6HR MIN TEMP:  65; 6HR MAX TEMP:  72;

ROCKWALL       CLEAR     69  67  93 E6        29.92R
6HR MIN TEMP:  69; 6HR MAX TEMP:  74;

TERRELL        CLEAR     68  64  87 CALM      29.93R
6HR MIN TEMP:  66; 6HR MAX TEMP:  74;

WAXAHACHIE     CLEAR     68  68 100 E3        29.93R
6HR MIN TEMP:  68; 6HR MAX TEMP:  75;

CLEBURNE       CLEAR     70  70 100 S6        29.92R
GRANBURY       MOCLDY    73  68  83 SE6       29.91R
6HR MIN TEMP:  73; 6HR MAX TEMP:  81;

$$

TXZ083>090-098>101-113>116-127>130-139>142-154-155-251300-
WESTERN NORTH TEXAS

CITY           SKY/WX    TMP DP  RH WIND       PRES   REMARKS
WICHITA FALLS  CLOUDY    73  66  78 SE10      29.87R
6HR MIN TEMP:  73; 6HR MAX TEMP:  77;

WF-KICKAPOO    CLOUDY    73  68  83 E6        29.90S
6HR MIN TEMP:  73; 6HR MAX TEMP:  78;

VERNON         CLOUDY    75  63  66 SE7       29.89R
6HR MIN TEMP:  72; 6HR MAX TEMP:  85;

ABILENE        CLOUDY    71  69  93 SE13      29.88S
6HR MIN TEMP:  71; 6HR MAX TEMP:  73;

ABILENE-DYESS  CLOUDY    71  69  92 SE10      29.87S
6HR MIN TEMP:  71; 6HR MAX TEMP:  73;

BRECKENRIDGE   CLOUDY    75  68  80 SE6       29.88S
6HR MIN TEMP:  74; 6HR MAX TEMP:  77;

CISCO          CLOUDY    72  70  94 S7        29.91R
EASTLAND       CLOUDY    72  70  93 SE7       29.90R
6HR MIN TEMP:  72; 6HR MAX TEMP:  74;

RANGER         CLOUDY    72  69  90 SE6       29.91R
6HR MIN TEMP:  64; 6HR MAX TEMP:  97;

MINERAL WELLS  CLOUDY    72  67  84 SE6       29.88S
6HR MIN TEMP:  72; 6HR MAX TEMP:  78; 6HR PCP: TRACE;

STEPHENVILLE   CLOUDY    72  68  87 SE6       29.93R
6HR MIN TEMP:  72; 6HR MAX TEMP:  77;

COMANCHE       CLOUDY    72  72 100 SE9       29.91R
6HR MIN TEMP:  72; 6HR MAX TEMP:  74;

COLEMAN        CLOUDY    71  68  89 SE9       29.89S
6HR MIN TEMP:  71; 6HR MAX TEMP:  73;

$$

TXZ143>147-156>162-174-175-251300-
CENTRAL TEXAS

CITY           SKY/WX    TMP DP  RH WIND       PRES   REMARKS
WACO           CLEAR     70  69  97 SE8       29.89S
6HR MIN TEMP:  70; 6HR MAX TEMP:  78;

WACO-TSTC      MOCLDY    70  68  94 CALM      29.90
WACO-MCGREGOR  PTCLDY    69  67  93 SE3       29.90R
6HR MIN TEMP:  69; 6HR MAX TEMP:  77;

HILLSBORO      CLEAR     72  69  90 SE6       29.90S
6HR MIN TEMP:  71; 6HR MAX TEMP:  77;

CORSICANA      CLEAR     71  69  93 SE6       29.92R
6HR MIN TEMP:  70; 6HR MAX TEMP:  74;

MEXIA          MOCLDY    68  67  96 CALM      29.92R FOG
6HR MIN TEMP:  67; 6HR MAX TEMP:  73;

HEARNE         PTCLDY   N/A N/A N/A E3        29.91R
CAMERON        CLEAR     69  69  98 CALM      29.90R FOG
6HR MIN TEMP:  69; 6HR MAX TEMP:  75;

TEMPLE         MOCLDY    69  69 100 E5        29.91R
6HR MIN TEMP:  69; 6HR MAX TEMP:  77;

KILLEEN        NOT AVBL
FORT HOOD      CLOUDY   N/A N/A N/A S5        29.87R
GATESVILLE     PTCLDY    73  70  88 S5        29.92R
HAMILTON       PTCLDY    72  72 100 S9        29.92R
6HR MIN TEMP:  72; 6HR MAX TEMP:  76;

LAMPASAS       CLEAR     71  70  97 CALM      29.90R
6HR MIN TEMP:  71; 6HR MAX TEMP:  76;

$$

TXZ095>097-106>112-122>126-135>138-148>153-164>167-251300-
EAST TEXAS

CITY           SKY/WX    TMP DP  RH WIND       PRES   REMARKS
PARIS          CLEAR     68  66  93 E5        29.94R
6HR MIN TEMP:  68; 6HR MAX TEMP:  72;

SULPHUR SPRNGS CLEAR     66  65  97 CALM      29.95R
6HR MIN TEMP:  66; 6HR MAX TEMP:  72;

MOUNT PLEASANT CLEAR     67  67  98 CALM      29.95R
6HR MIN TEMP:  65; 6HR MAX TEMP:  71;

GILMER         CLEAR     67  66  97 CALM      29.94R
6HR MIN TEMP:  66; 6HR MAX TEMP:  70;

MINEOLA        CLEAR     66  64  94 CALM      29.93R FOG
TYLER          CLEAR     70  68  93 CALM      29.93R
6HR MIN TEMP:  69; 6HR MAX TEMP:  73;

LONGVIEW       CLEAR     68  68 100 NE3       29.92R
6HR MIN TEMP:  68; 6HR MAX TEMP:  74;

MARSHALL       CLEAR     65  63  93 CALM      29.95S
6HR MIN TEMP:  65; 6HR MAX TEMP:  69;

ATHENS         CLEAR     64  64 100 CALM      29.92R
PALESTINE      CLEAR     70  70 100 CALM      29.93R
JACKSONVILLE   CLEAR     69  69 100 CALM      29.95R FOG
HENDERSON      CLEAR     65  65  98 CALM      29.94R FOG
6HR MIN TEMP:  65; 6HR MAX TEMP:  71;

CENTER         SUNNY     71  69  95 CALM      29.94R
6HR MIN TEMP:  70; 6HR MAX TEMP:  74;

NACOGDOCHES    CLEAR     66  66 100 CALM      29.94R FOG
6HR MIN TEMP:  66; 6HR MAX TEMP:  70;

LUFKIN         CLEAR     70  69  97 CALM      29.92R
6HR MIN TEMP:  69; 6HR MAX TEMP:  71;

$$

SUPPLEMENTAL OBSERVATIONS (NWS FORT WORTH AREA)

CITY           SKY/WX    TMP DP  RH WIND       PRES   REMARKS
$$

SUPPLEMENTAL OBSERVATIONS (NWS NORMAN AREA)

CITY           SKY/WX    TMP DP  RH WIND       PRES   REMARKS
GOODLETT         N/A     71  66  84 SE10      29.87S
ODELL            N/A     73  67  81 SE10      29.89S
CROWELL        LGT RAIN  71  69  93 SE6       29.89R
KNOX CITY        N/A     72  67  83 SE9       29.87S
SEYMOUR          N/A     74  66  75 S12       29.88S
$$

SUPPLEMENTAL OBSERVATIONS (NWS SAN ANGELO AREA)

CITY           SKY/WX    TMP DP  R


USA.gov is the U.S. government's official web portal to all federal, state and local government web resources and services.